Location: Mount Hamilton
(37.3433°N, 121.6347°W)
Time: 12:04:31
(UTC-07:00)

Envisat - Visible Passes

Search period start: 18 June 2018 00:00
Search period end: 28 June 2018 00:00
Orbit: 764 x 766 km, 98.2° (Epoch: 18 June)

Date Brightness Start Highest point End Pass type
(mag) Time Alt. Az. Time Alt. Az. Time Alt. Az.
18 Jun 4.9 21:14:47 10° SSW 21:19:06 28° W 21:23:27 10° NW visible
20 Jun 5.6 21:41:54 10° SW 21:44:53 16° W 21:47:52 10° NW visible
21 Jun 4.5 21:03:15 10° SSW 21:07:52 36° W 21:12:33 10° NNW visible
23 Jun 5.4 21:29:56 10° SW 21:33:37 20° W 21:37:19 10° NW visible
25 Jun 5.9 21:58:30 10° W 21:59:27 10° W 22:00:24 10° WNW visible
26 Jun 5.1 21:18:13 10° SSW 21:22:23 26° W 21:26:34 10° NW visible
